Theta_e
300 300 300 300 300 300 300 300 301 301 301 303 304 304 303 303 304 306 306 306 307 309 310 309 308 308 309 309 309 310 309 308 308 308 307 308 308 307 308 308 308 308 308 307 307 308 310 310 310 311 310 310 310 311 311 311 310 310 310 310 311 315 317 317 316 319 319 320 322 321 322 323 323 323 324 325 325 323 323 327 329 323 321 323 323 320 321
300 300 300 301 301 301 302 303 304 304 304 305 306 305 304 304 306 306 306 306 307 308 308 308 308 308 309 309 310 310 309 308 308 307 308 308 307 308 308 307 308 309 308 307 307 307 309 310 310 311 310 310 311 311 310 310 310 310 310 311 313 316 317 315 317 324 325 320 321 324 327 325 322 323 324 323 327 325 325 330 328 323 321 321 321 320 321
301 302 303 304 305 306 306 307 307 307 306 306 306 305 305 306 308 307 306 306 306 306 307 307 307 308 308 309 309 310 310 309 308 308 307 307 307 308 308 307 308 309 308 308 307 307 309 311 311 311 310 310 311 311 310 310 310 310 311 313 314 315 316 315 317 324 326 323 324 326 326 322 319 323 324 323 327 324 324 327 322 322 325 322 320 320 322
306 307 308 308 309 309 309 309 308 307 307 307 306 306 305 307 309 308 306 306 306 306 305 306 307 307 307 308 309 309 309 309 309 308 307 307 307 307 307 307 308 308 308 308 308 307 309 311 311 310 309 310 310 310 310 310 310 311 313 314 313 314 316 315 316 318 318 319 320 319 317 316 316 320 320 322 326 323 327 326 322 327 329 323 323 326 323
309 309 309 309 309 310 310 309 308 307 307 307 306 306 306 307 308 307 306 307 306 306 305 305 306 307 307 308 309 309 309 309 309 309 308 307 307 307 307 307 308 307 308 308 308 308 308 309 310 309 310 310 310 310 310 310 311 312 313 313 312 314 315 314 315 315 314 314 315 314 315 315 315 316 317 321 325 324 324 322 324 331 327 321 331 337 325
310 310 310 309 310 310 310 309 308 307 307 307 307 306 306 307 307 307 306 306 306 306 305 305 306 306 307 308 309 309 309 309 309 309 308 307 307 307 308 308 307 307 307 308 309 309 309 309 310 310 310 309 310 310 310 311 311 311 311 311 311 313 314 313 314 314 313 314 314 314 315 315 315 316 319 322 326 324 322 322 328 333 325 321 337 343 329
311 311 310 309 309 310 310 308 307 307 307 307 307 306 306 307 307 307 306 306 306 306 305 306 306 306 307 309 309 308 308 308 308 308 308 308 307 307 308 308 307 307 307 308 309 309 310 310 309 309 309 309 310 311 311 311 312 310 309 310 310 313 315 314 313 314 313 313 314 314 315 318 319 321 324 326 327 325 321 324 330 332 329 329 338 341 335
312 311 310 309 309 309 308 307 306 307 307 307 307 307 306 306 306 307 307 306 306 306 306 306 306 306 307 309 309 308 308 308 307 308 308 308 308 308 308 308 308 307 307 308 309 309 310 310 309 308 308 308 310 312 312 311 312 310 309 310 310 312 315 314 313 313 314 313 314 315 316 319 324 327 328 333 336 327 318 328 334 330 330 336 335 336 341
312 311 310 310 309 308 307 306 306 306 307 307 307 307 307 307 307 307 307 307 307 307 306 306 306 306 307 308 308 307 307 307 307 308 308 308 308 308 308 308 308 307 307 309 309 308 308 308 308 307 308 308 310 312 312 311 311 310 310 310 310 311 313 313 313 314 314 314 314 315 315 320 327 327 325 332 342 337 333 342 344 340 343 343 332 332 342
312 311 310 309 308 307 307 306 305 306 307 307 307 307 307 307 308 307 307 307 307 307 306 305 306 307 308 307 307 306 306 306 307 308 308 308 308 308 308 308 308 308 308 309 308 307 307 307 307 307 307 307 308 309 309 310 310 310 310 310 309 310 312 313 313 314 314 313 313 315 321 330 335 329 324 329 339 340 339 341 340 340 347 346 332 333 342
312 311 310 309 308 307 306 306 305 305 306 307 307 307 307 308 308 308 307 307 307 307 307 306 306 307 307 306 306 306 306 307 308 308 308 308 307 307 308 308 309 309 309 308 308 308 308 308 308 308 308 308 308 308 308 308 309 309 310 310 310 310 311 312 313 314 314 313 315 323 332 338 336 327 322 325 333 337 337 338 336 336 341 343 340 341 346
311 310 309 308 307 306 306 306 305 305 306 307 307 307 307 308 308 308 307 307 307 306 306 307 306 306 306 306 306 306 306 307 308 308 308 308 307 307 308 307 308 309 309 308 308 308 308 308 308 308 307 308 308 308 308 308 309 309 310 310 310 310 311 311 312 314 314 314 322 335 340 335 329 324 321 322 324 327 332 336 335 332 335 339 342 344 345
311 309 308 307 306 306 306 306 306 305 305 306 307 307 307 307 308 308 307 307 307 306 306 306 306 306 306 306 306 306 307 307 308 308 308 307 307 307 307 307 308 308 308 308 308 308 309 310 310 309 309 310 310 310 310 308 309 310 310 310 310 310 311 311 312 316 317 316 323 335 337 330 326 323 321 321 322 323 329 338 336 330 331 334 338 341 342
309 307 306 307 308 308 307 306 306 306 306 306 306 307 307 307 308 308 308 307 307 307 306 307 306 306 306 306 306 307 307 307 307 307 308 307 306 307 307 307 308 307 308 308 308 308 309 311 311 312 312 312 313 313 312 310 310 310 310 310 310 310 311 311 312 318 320 316 317 326 333 332 327 323 319 319 320 321 326 336 337 330 328 331 334 338 341
306 306 308 309 309 308 307 307 307 307 307 307 307 307 307 307 307 308 308 307 307 307 307 307 307 307 307 307 307 307 306 307 307 308 308 307 307 307 307 307 307 307 308 308 307 308 309 310 311 312 313 313 314 314 314 313 313 311 311 311 310 310 311 312 313 318 320 316 317 325 336 336 327 320 317 317 321 320 321 331 337 330 327 329 331 334 339
307 309 310 310 310 308 308 307 307 307 307 308 308 307 307 307 307 307 308 308 308 308 307 307 307 307 307 307 307 307 306 307 308 308 307 307 307 307 307 307 307 307 308 308 307 308 310 311 311 312 313 313 313 314 314 315 315 313 311 312 310 311 313 313 313 315 315 315 319 325 331 330 322 317 316 318 321 320 322 333 339 331 327 330 329 330 334
310 311 311 311 310 308 308 308 308 308 308 308 308 308 308 308 307 307 308 308 308 307 307 307 307 307 307 307 307 307 307 308 308 308 308 307 307 307 307 307 307 307 308 309 309 309 310 311 311 312 313 312 312 313 314 315 316 315 314 314 313 314 317 317 315 314 315 316 319 323 325 323 319 317 318 320 321 323 328 339 339 330 327 329 329 327 329
311 311 311 311 310 309 308 308 308 308 308 308 308 308 308 308 308 308 308 308 308 308 308 308 307 307 307 307 307 307 307 308 308 308 308 307 307 307 307 307 308 308 308 309 311 310 310 311 311 311 312 312 311 313 314 314 315 316 315 316 315 316 318 319 317 316 317 317 319 323 323 319 317 318 319 322 325 328 333 336 331 327 327 327 326 326 326
312 312 312 311 310 309 308 308 308 308 308 308 308 308 308 308 308 308 308 308 308 308 308 308 308 308 308 308 307 308 308 308 308 308 308 308 307 307 307 307 308 308 307 308 310 310 309 310 310 311 312 312 311 312 313 314 314 314 315 316 316 316 318 319 318 318 320 320 321 324 322 318 317 320 321 323 327 331 331 329 325 325 325 323 323 324 323
312 312 312 311 311 310 309 308 308 308 308 308 308 308 308 309 309 309 309 309 308 308 308 308 308 308 308 308 308 308 308 307 307 307 308 308 307 307 307 308 308 308 308 308 309 309 309 310 310 310 311 311 311 312 313 313 313 313 314 315 315 315 317 318 317 317 320 321 321 322 321 318 318 320 321 322 325 327 326 326 324 322 322 321 321 321 321
312 312 312 312 312 311 310 310 309 309 308 308 308 308 308 308 308 309 309 309 308 308 308 308 308 308 308 308 308 308 308 308 307 307 307 307 307 307 308 308 308 308 308 308 309 309 309 310 310 310 310 311 311 311 312 313 312 312 313 314 314 315 316 316 316 316 317 318 319 318 318 318 318 319 319 319 319 319 320 323 324 322 320 320 319 318 318
312 312 313 313 313 313 312 311 311 310 309 309 308 308 308 308 308 309 309 309 309 308 308 309 309 308 308 308 308 308 308 308 308 307 307 307 307 308 308 307 308 308 307 308 309 309 309 309 310 310 310 310 311 311 312 312 313 312 313 314 315 315 315 315 316 315 315 317 317 316 316 317 316 316 316 315 314 314 314 317 321 321 320 319 318 317 317
312 313 313 313 314 313 313 313 312 312 311 310 310 309 308 308 308 308 309 309 309 309 309 309 308 308 309 309 309 309 308 308 308 308 307 307 307 308 308 307 308 308 307 307 308 309 309 309 310 310 310 310 311 311 311 312 313 312 313 314 315 314 314 314 314 314 315 317 317 314 314 314 314 315 314 313 312 312 312 313 315 317 319 319 318 316 317
312 314 314 314 313 313 313 313 313 312 312 311 311 310 309 309 308 309 309 309 309 309 309 308 308 308 309 309 309 309 309 308 308 308 307 307 307 308 308 308 308 308 308 308 308 309 309 309 309 310 310 310 310 311 311 312 313 312 312 313 313 313 313 313 311 312 314 317 317 314 312 312 313 314 314 312 311 311 310 310 311 313 316 318 317 315 315
313 314 314 314 313 313 313 313 313 313 313 312 312 311 311 310 310 309 309 309 309 309 308 308 308 309 309 309 309 309 309 308 308 308 308 308 308 308 308 308 308 308 308 308 308 308 308 309 311 311 310 309 310 310 310 311 311 311 311 312 312 312 312 311 310 310 313 314 314 311 310 310 313 314 313 312 310 310 309 309 309 310 312 315 317 315 315
314 315 314 314 314 313 314 314 314 314 313 313 313 312 311 311 310 310 309 308 309 308 307 307 308 309 309 309 309 310 309 308 308 308 308 308 308 308 308 308 308 308 308 308 308 309 308 309 310 311 310 310 309 309 310 310 310 311 311 310 310 310 310 309 309 309 311 312 311 310 309 311 313 314 313 311 310 309 309 309 309 309 310 312 315 314 314
315 315 315 314 314 314 314 315 315 314 314 313 313 313 312 311 311 310 309 308 308 309 308 308 309 309 310 310 309 309 309 309 309 308 308 308 308 308 308 308 308 308 308 308 309 309 308 308 309 309 310 309 309 309 309 309 310 310 309 308 308 309 308 308 308 309 310 310 310 308 309 310 311 311 311 310 309 309 309 309 309 309 309 311 313 314 314
316 315 315 315 315 315 315 315 315 314 314 314 313 313 313 312 311 310 309 309 309 309 309 308 308 310 310 311 310 309 309 309 308 308 308 308 308 308 308 309 308 308 308 309 309 309 309 309 309 309 309 309 309 309 309 309 309 310 309 308 308 308 308 307 308 308 308 308 308 308 308 309 309 309 309 309 308 308 309 308 309 309 309 310 312 313 315
317 316 315 315 316 315 316 316 315 315 314 314 313 313 313 312 311 309 309 310 309 308 308 308 310 310 311 311 311 310 309 309 309 308 308 308 309 308 308 308 308 308 308 308 308 309 309 308 309 309 309 309 309 309 308 309 309 309 308 307 307 307 307 307 307 307 307 307 307 307 307 307 308 308 308 308 308 308 309 309 309 310 310 309 311 314 315
318 317 316 316 316 316 316 316 316 316 315 314 314 313 313 313 312 310 309 309 309 308 308 309 311 311 311 311 312 311 311 310 309 309 309 309 309 309 309 309 309 308 308 308 308 309 309 308 308 308 308 309 309 308 308 308 309 308 308 307 307 307 308 307 307 306 306 307 306 307 307 307 308 308 309 309 309 309 309 310 310 310 310 311 311 312 314
318 319 318 318 317 317 317 317 317 317 316 315 314 313 311 311 311 310 309 308 308 309 308 309 310 310 310 311 312 312 311 311 310 310 310 310 309 309 309 309 308 308 308 308 308 308 309 308 308 308 308 309 309 309 308 308 308 308 307 307 308 308 308 308 307 306 306 307 307 307 308 308 309 309 309 310 311 310 310 311 310 310 311 313 312 310 311
319 319 319 318 318 318 318 317 317 317 317 316 315 313 312 311 310 310 309 309 309 309 309 310 312 311 310 311 312 312 311 311 310 310 310 310 310 310 309 308 308 308 308 308 308 308 308 308 308 309 308 308 309 309 308 308 308 308 308 308 308 308 308 308 307 307 307 307 307 308 308 309 309 310 310 311 311 311 311 311 311 311 312 314 313 311 310
320 320 320 319 319 318 319 319 318 317 317 317 316 315 314 312 311 310 310 309 309 309 309 310 312 312 312 312 312 312 312 312 311 310 310 310 310 310 309 308 308 308 308 308 308 308 308 307 308 308 308 307 308 308 308 308 308 308 308 308 308 308 308 308 308 307 307 307 307 307 308 309 310 311 312 313 313 313 312 312 311 311 312 312 312 311 310
320 320 320 320 319 319 319 318 318 318 317 317 317 316 315 314 312 311 311 310 310 310 310 309 311 313 313 313 314 313 312 312 311 310 310 309 309 309 309 309 309 309 309 309 308 308 308 308 308 308 308 307 307 307 308 308 308 308 308 308 308 308 308 308 308 307 307 306 306 307 307 308 309 311 313 314 315 315 314 312 312 312 312 312 312 312 311
320 320 321 321 320 320 319 318 319 319 318 317 317 316 315 315 313 312 312 312 311 311 311 310 311 314 315 316 317 315 313 312 312 311 310 309 310 309 309 309 309 309 310 309 308 308 308 308 308 308 308 308 308 308 308 308 309 309 309 308 308 308 308 308 307 307 307 306 306 307 307 308 308 310 311 313 315 315 314 313 312 311 311 312 312 312 312
319 319 319 320 320 319 319 319 320 319 318 317 317 316 316 315 314 314 314 313 312 312 312 311 312 313 314 316 316 314 313 314 313 312 312 312 312 310 310 310 311 310 309 308 309 309 309 309 308 308 308 308 308 309 309 309 309 309 309 308 308 307 307 307 307 307 307 306 306 306 306 307 308 309 309 311 313 315 315 314 313 311 311 312 313 313 313
317 317 318 318 319 320 321 321 320 319 318 318 318 317 315 314 314 315 315 314 313 313 312 312 313 313 312 314 314 313 314 315 314 313 313 313 312 311 311 312 313 311 310 310 310 310 310 309 308 308 309 309 309 309 309 309 310 309 308 308 307 307 307 307 306 306 306 306 306 306 306 306 307 308 308 309 312 314 315 315 315 313 312 312 313 312 313
317 317 318 318 319 321 322 321 319 318 318 318 317 317 316 315 314 316 316 315 315 314 313 313 314 313 312 313 314 314 314 314 315 315 314 313 313 313 313 313 313 312 312 312 311 309 310 310 309 309 309 308 308 309 309 309 309 309 308 308 307 307 306 306 306 306 306 306 306 306 306 306 306 307 307 308 311 314 315 316 317 316 314 313 313 313 313
317 317 318 318 320 321 321 319 318 318 318 318 318 318 317 316 318 319 318 315 315 315 314 314 315 314 313 314 315 314 314 314 315 315 314 314 314 314 314 314 313 312 313 313 310 309 312 312 311 310 309 308 307 308 309 309 309 309 308 308 307 306 306 306 305 305 305 306 305 305 305 305 306 306 307 308 310 315 317 318 318 318 317 316 315 314 313
317 317 318 319 320 320 319 318 318 318 318 318 318 318 317 317 319 321 319 318 318 317 315 315 316 315 314 314 315 315 314 314 315 315 315 315 314 313 314 314 313 312 314 314 310 309 312 312 310 309 309 308 307 308 308 308 308 308 308 308 307 306 306 305 305 305 305 305 305 305 305 305 305 306 306 307 310 315 318 319 319 319 318 317 316 315 314
317 318 318 319 319 319 318 318 318 319 319 319 319 319 318 318 318 319 319 321 323 320 316 316 318 317 316 315 315 315 315 315 314 315 316 315 313 313 314 314 312 312 316 315 311 311 313 312 310 309 309 308 308 308 307 307 308 308 308 308 307 306 306 305 305 305 305 305 305 305 304 304 304 305 306 307 310 314 319 320 319 319 318 317 316 316 315
317 318 318 319 320 320 319 319 319 318 319 319 320 319 319 318 318 318 319 320 320 318 317 317 318 317 317 316 315 315 316 315 315 315 316 316 315 313 314 313 312 312 314 312 311 313 313 311 310 310 309 308 307 307 306 306 307 308 308 307 307 306 305 305 305 305 305 304 304 304 304 304 304 304 305 306 309 313 318 320 320 319 319 318 316 315 315
316 317 320 321 321 321 320 319 318 318 318 319 318 316 318 320 320 318 318 318 316 316 317 318 317 317 317 316 315 315 316 316 315 315 317 317 315 313 313 313 312 311 310 311 313 314 312 310 310 310 309 308 307 306 305 306 306 307 307 307 306 306 305 304 304 305 305 304 304 304 304 304 304 304 304 305 307 311 314 318 319 319 319 318 317 317 316
317 318 320 321 321 321 320 318 316 315 317 318 316 315 317 320 320 318 317 317 315 314 315 314 314 316 318 317 315 316 317 317 316 316 316 315 314 313 313 314 313 311 310 313 314 312 310 309 310 309 308 307 307 306 306 306 306 307 308 307 306 305 305 304 304 304 305 305 304 304 304 304 304 304 304 304 305 307 310 313 317 319 318 317 317 317 316
317 318 318 318 317 317 317 315 314 314 314 316 316 316 316 317 318 317 315 314 312 313 313 312 313 315 317 317 316 316 317 316 316 316 315 315 315 314 313 313 313 313 313 314 314 312 310 310 310 309 308 308 307 306 305 306 306 307 308 307 306 305 304 303 303 304 304 304 304 304 304 304 304 304 303 303 303 304 306 308 311 315 318 319 318 318 318
316 317 316 315 314 313 313 314 316 315 314 313 314 314 315 315 315 314 313 311 311 312 313 313 314 316 317 317 316 316 316 316 317 316 315 315 315 314 311 312 314 314 313 313 313 312 310 309 309 308 308 307 306 305 305 305 305 306 307 307 306 305 304 303 303 303 304 304 304 304 303 303 303 303 303 303 303 303 303 304 307 310 313 315 317 318 319
316 315 314 314 315 315 314 314 315 314 313 312 312 312 312 313 312 311 311 312 312 312 312 313 315 316 317 317 316 315 315 316 318 316 314 314 314 313 312 314 315 313 312 312 312 311 309 308 308 307 307 307 305 304 304 305 305 306 307 307 307 306 304 304 304 303 303 304 303 303 303 303 303 303 303 303 303 303 302 302 304 306 307 309 310 313 315
315 314 313 315 316 315 314 314 313 312 312 312 312 312 312 312 311 311 311 311 311 311 312 311 312 314 314 315 315 314 313 315 316 315 313 313 314 313 313 314 313 311 310 310 311 310 308 307 307 307 306 306 305 304 304 305 305 305 306 307 307 306 305 305 304 304 304 303 303 303 303 303 303 303 303 303 303 303 303 302 302 303 304 305 306 308 310
315 314 314 314 315 313 312 312 313 313 312 312 312 311 312 312 311 311 311 311 310 311 311 310 312 313 312 312 314 315 314 313 314 314 314 314 314 313 312 312 312 311 310 310 310 309 309 308 307 307 306 305 304 303 303 304 304 305 305 305 306 306 306 306 305 305 304 304 303 303 303 302 302 302 303 303 303 303 303 303 303 302 302 303 304 304 306
314 314 313 313 314 313 312 312 313 313 313 313 312 311 312 312 311 311 311 310 310 310 310 310 311 312 311 311 314 316 313 312 314 316 315 314 313 312 311 311 312 311 311 311 310 310 309 308 307 307 306 304 303 303 303 303 304 304 304 304 304 305 306 306 306 305 305 304 304 304 303 302 301 301 302 302 303 303 303 303 303 303 302 302 302 302 303
314 314 313 314 314 314 313 313 314 315 314 313 312 311 312 312 311 311 311 310 309 310 310 310 310 313 313 314 314 313 311 312 314 315 314 313 313 313 312 312 312 312 311 310 310 309 309 308 307 307 306 305 304 303 302 303 304 304 304 303 303 304 305 305 305 305 305 305 304 304 303 303 301 300 300 301 302 302 302 302 302 302 303 303 302 302 302
315 314 314 314 315 315 313 313 313 313 313 313 312 312 312 312 311 311 311 310 310 309 309 310 312 314 314 312 311 311 312 313 313 313 313 312 312 312 313 313 312 310 309 309 309 309 308 307 307 307 306 305 303 303 302 302 303 303 303 303 302 302 302 302 302 303 304 304 304 304 304 303 302 301 300 300 300 301 301 302 301 301 302 302 302 303 302
Wind_Speed
27 28 28 28 28 29 29 29 29 31 31 32 32 29 25 19 12 14 24 26 24 12 5 5 5 2 7 10 9 9 8 5 5 7 7 4 2 2 1 2 2 1 1 2 3 4 2 1 1 2 5 6 7 11 15 16 13 10 6 5 8 6 2 3 6 6 8 15 15 11 11 7 5 7 8 8 7 9 8 5 5 5 4 3 2 4 9
27 27 27 27 27 28 29 28 27 28 27 27 28 24 20 18 16 15 20 24 25 16 3 4 4 4 9 9 9 10 8 6 7 4 3 3 1 0 1 1 2 1 1 1 3 5 3 1 2 3 3 4 8 11 13 14 11 6 6 6 6 6 2 2 5 5 5 7 7 5 4 1 2 6 7 11 13 11 5 2 4 5 7 8 5 6 10
26 27 27 27 27 27 28 27 25 25 24 23 23 19 16 12 10 13 19 21 24 17 5 4 4 6 9 7 7 10 8 9 13 8 5 7 5 1 1 1 1 1 3 2 3 4 2 2 3 3 3 4 7 8 10 13 11 9 14 15 10 4 1 0 1 2 4 5 4 2 4 5 6 8 7 11 16 15 7 4 4 6 5 7 6 7 10
26 27 26 26 27 26 27 26 24 22 21 21 20 15 11 6 3 9 16 17 19 16 10 9 6 5 8 5 5 8 7 9 15 12 8 12 13 5 2 2 2 3 4 2 3 3 3 3 2 3 3 3 4 7 11 15 15 15 17 15 7 2 2 3 5 6 6 6 7 7 7 8 9 12 14 13 14 16 10 5 5 7 4 5 7 8 11
26 26 26 26 26 26 26 25 22 19 18 18 17 12 8 4 2 4 8 9 12 12 12 12 8 6 7 4 3 7 6 6 10 9 7 13 14 6 3 5 4 4 6 3 3 3 4 4 4 5 4 3 6 10 13 13 13 11 9 10 6 1 3 5 7 9 10 12 16 16 12 11 13 15 16 15 13 12 14 10 7 8 6 6 8 7 10
26 26 25 24 25 25 24 23 20 17 16 17 15 11 7 4 2 4 4 3 4 6 9 12 10 8 8 3 2 6 7 6 7 6 7 12 11 5 3 6 6 6 7 4 3 3 4 4 4 3 3 4 6 8 8 7 7 10 9 9 5 1 3 5 5 9 13 15 18 18 14 13 14 14 16 18 15 13 16 14 9 9 8 8 8 8 12
25 25 23 23 24 24 23 23 19 16 15 15 13 10 7 3 2 4 5 4 4 6 10 12 9 8 8 3 2 6 8 7 7 5 5 8 7 5 2 6 8 9 8 5 3 2 3 4 4 2 3 5 4 4 5 4 4 7 6 7 4 2 4 4 5 11 16 15 14 13 11 10 10 11 14 15 14 16 17 13 10 10 9 8 7 10 13
24 24 23 22 23 22 21 21 19 15 14 12 10 7 5 3 3 5 6 5 6 8 8 6 5 6 6 3 3 6 7 8 8 7 5 5 4 4 5 8 10 10 8 5 5 5 5 6 5 4 5 5 2 2 3 3 2 4 4 4 4 2 3 4 6 9 12 11 8 8 10 8 6 8 12 12 6 10 15 10 6 6 6 4 5 8 9
24 24 23 22 21 20 19 19 17 14 13 12 9 7 6 6 7 8 7 4 4 6 5 3 3 3 3 3 4 6 7 9 11 9 5 4 4 5 8 10 9 8 8 7 7 8 8 9 12 11 10 9 5 4 4 5 3 3 2 2 3 2 2 4 5 5 7 7 9 14 14 8 3 9 16 17 11 1 5 3 4 1 3 3 1 3 6
24 23 22 21 20 19 18 17 15 12 11 11 10 9 9 10 10 9 5 3 2 3 2 1 1 2 2 5 7 7 8 11 10 7 3 4 9 12 12 12 8 5 7 8 10 16 18 19 22 22 20 18 15 14 14 12 8 3 1 1 2 3 2 3 3 3 6 7 12 14 10 5 3 6 12 13 9 9 8 9 11 6 1 1 1 3 5
24 23 22 21 19 18 17 15 12 10 9 9 9 11 11 10 11 9 5 3 3 3 2 1 1 2 4 8 9 8 9 11 8 4 2 5 15 20 18 14 7 3 7 14 20 27 28 26 26 26 25 24 21 19 19 17 14 10 5 2 3 4 3 3 2 2 6 11 14 9 3 3 1 2 9 13 11 13 13 11 13 12 7 3 1 3 5
23 22 21 21 20 18 16 13 11 8 8 8 10 12 12 10 12 10 4 2 2 3 2 2 4 4 8 10 10 9 9 10 9 8 7 9 16 20 17 11 5 5 14 24 30 30 24 19 18 18 19 19 18 18 17 14 14 15 12 6 4 4 3 3 1 1 5 9 8 3 3 1 3 5 10 14 9 8 9 9 15 18 15 11 8 8 9
23 22 21 21 20 18 15 13 12 9 8 9 11 12 11 10 12 10 6 3 2 3 3 5 7 9 10 10 10 10 11 12 12 12 10 9 13 17 15 10 9 14 23 29 29 22 12 7 8 8 8 8 8 10 13 13 12 13 13 10 7 5 3 2 2 2 3 5 3 1 2 2 2 4 10 13 10 8 8 9 16 20 16 13 12 11 11
22 21 21 21 20 18 15 14 13 11 9 9 10 11 11 9 11 11 8 4 2 4 5 5 4 6 7 8 8 9 10 12 11 10 9 9 11 14 15 16 17 20 23 23 19 11 4 2 4 4 3 3 3 3 6 9 11 12 12 11 9 6 4 2 2 2 1 3 3 2 2 3 4 5 8 9 8 9 8 4 10 17 17 15 13 12 13
21 21 22 22 20 18 15 14 13 12 10 10 10 10 10 10 11 12 9 6 3 3 6 5 4 4 4 6 7 7 7 7 6 7 9 10 10 12 16 20 19 19 18 13 7 4 2 2 3 3 2 2 2 1 1 3 6 11 11 10 8 7 6 3 2 1 1 3 3 2 2 0 2 8 12 11 11 13 10 2 5 14 19 20 15 13 14
22 23 23 22 20 18 16 14 14 12 10 10 11 11 10 9 10 10 10 8 4 2 4 5 6 6 6 8 8 7 5 3 3 5 5 5 9 15 21 21 17 17 17 9 2 2 2 2 2 3 3 3 3 1 1 2 1 6 8 9 8 9 8 4 3 2 1 1 1 1 1 1 6 14 17 19 19 13 7 2 5 12 20 23 18 14 15
23 24 24 23 19 17 16 15 13 11 10 9 10 12 10 9 8 9 10 8 6 6 8 10 11 8 5 5 6 5 5 4 4 3 3 5 9 15 22 22 17 17 16 7 1 2 3 2 3 3 2 3 4 3 2 2 2 4 6 7 6 6 4 3 3 3 3 3 2 1 1 2 10 15 19 26 24 10 2 3 4 9 19 24 19 15 16
24 24 24 22 19 17 16 14 11 10 9 8 10 11 10 9 8 7 9 9 7 6 7 7 8 8 6 5 6 5 5 6 4 2 4 6 6 10 19 19 12 14 15 7 1 2 4 2 3 3 2 3 5 3 3 3 3 3 4 4 2 2 1 1 2 3 3 3 1 1 1 3 11 17 24 30 20 3 5 4 1 9 18 21 21 20 21
24 24 24 22 20 16 14 12 11 9 8 7 9 11 10 9 8 6 8 9 8 7 9 10 11 13 11 10 10 8 7 8 6 3 3 3 6 14 17 9 4 8 11 6 1 2 3 3 3 3 2 3 4 3 4 4 4 4 2 2 1 1 1 2 2 2 2 2 1 1 2 4 15 22 26 25 10 3 5 5 2 9 17 20 22 24 25
24 24 24 21 18 15 13 11 10 9 7 7 9 10 9 7 7 6 7 8 9 12 15 14 12 12 11 10 10 9 8 8 6 3 2 3 9 15 10 2 4 8 7 4 3 2 2 3 4 3 3 3 3 3 4 3 5 6 4 2 3 4 2 2 3 4 3 1 3 3 1 7 20 21 16 15 10 5 8 8 7 13 19 20 23 27 28
24 23 22 19 16 14 13 11 10 8 6 5 6 7 7 5 4 4 4 6 8 10 10 9 10 12 13 13 14 14 13 13 9 7 7 8 9 8 3 2 7 6 2 2 3 2 2 3 3 3 3 3 3 4 4 3 4 8 6 2 4 5 3 1 2 3 3 2 3 2 2 7 17 15 8 10 14 17 19 14 10 14 20 21 24 29 31
23 21 18 16 15 15 14 12 11 9 6 4 3 4 5 3 1 2 3 4 7 10 11 12 14 13 11 9 9 9 10 12 12 11 11 10 8 4 4 8 8 5 2 2 2 1 2 2 2 3 3 2 3 4 4 3 3 6 7 4 5 7 7 3 1 4 4 2 2 1 2 6 12 13 12 15 20 24 25 21 16 16 19 22 25 29 30
21 18 16 15 15 15 14 13 12 10 8 6 5 3 2 1 3 3 4 4 8 12 13 11 9 6 4 3 3 4 4 5 7 9 11 10 7 5 6 7 5 4 5 5 3 3 2 1 2 3 2 3 4 3 3 4 3 4 7 5 5 10 12 6 3 6 5 2 4 4 7 8 8 7 12 17 20 22 24 24 23 22 20 21 24 28 27
17 15 15 15 14 14 14 13 11 9 8 7 7 5 3 2 2 1 2 4 7 9 9 7 5 3 4 3 2 3 3 2 3 5 8 11 9 5 4 4 3 4 9 11 9 6 4 3 2 2 2 4 4 3 3 4 3 4 6 4 3 11 14 7 4 7 6 1 3 7 11 8 5 5 5 13 18 20 21 23 26 26 23 21 22 25 25
15 14 14 13 13 14 15 14 12 9 7 7 7 5 4 4 2 2 1 2 4 4 4 5 4 4 5 5 4 3 1 2 4 4 6 9 10 7 6 7 8 10 13 13 10 7 5 3 1 2 2 5 6 3 2 4 4 4 6 5 4 10 13 7 5 7 6 5 4 15 25 17 7 12 2 11 17 21 24 24 26 26 23 21 21 22 22
13 13 12 12 12 13 14 15 14 11 8 7 6 5 5 5 3 3 2 1 3 3 3 4 3 4 6 6 3 2 2 3 4 4 3 5 7 8 10 13 14 12 10 9 8 7 4 2 1 1 2 5 7 4 2 3 5 3 4 7 8 10 9 7 7 7 6 5 7 20 28 15 7 13 4 8 16 24 27 26 26 26 23 21 20 19 18
13 12 11 10 11 11 11 13 15 13 9 7 7 5 5 5 4 3 2 0 1 1 2 4 6 6 7 6 4 2 3 4 3 4 5 7 9 12 14 13 11 10 10 8 6 5 3 3 2 2 2 4 6 4 3 4 4 1 3 9 12 9 6 6 7 5 4 5 10 15 14 8 7 14 22 23 21 23 26 27 26 25 23 20 19 19 15
12 12 10 9 9 9 10 12 14 13 10 8 7 5 4 5 6 3 0 0 1 2 4 8 10 7 7 7 5 2 3 3 3 3 4 2 2 6 9 7 7 9 10 8 4 3 2 3 3 3 3 4 5 4 4 5 4 2 4 11 14 10 7 7 7 6 8 12 16 16 13 15 21 29 36 37 30 23 25 28 25 22 21 18 17 19 16
10 11 10 9 8 8 9 11 12 13 12 10 8 5 3 4 6 4 0 0 1 3 6 9 7 5 5 7 7 4 1 2 3 6 5 2 2 3 3 5 7 8 6 4 3 2 2 2 3 3 5 5 4 2 3 4 3 3 7 15 18 15 12 12 11 11 13 16 20 20 19 23 30 34 38 40 35 27 27 29 26 24 20 14 12 15 15
8 10 10 10 9 9 10 11 11 13 13 13 10 6 3 4 6 5 3 2 2 3 4 4 3 3 3 5 9 9 5 1 3 4 4 2 1 1 2 4 5 5 3 3 3 2 2 4 5 6 8 8 4 1 2 3 2 4 12 21 23 20 18 17 16 16 18 21 25 26 26 29 34 36 37 38 33 28 26 26 26 23 15 9 9 12 14
8 9 9 9 10 10 11 12 11 12 13 13 12 8 4 4 5 5 4 3 3 3 4 3 4 3 2 4 9 12 9 5 3 3 3 3 3 2 3 4 5 5 3 3 3 3 3 4 5 6 9 9 4 1 2 3 3 6 15 22 23 22 22 22 21 21 23 26 28 27 26 27 28 29 33 34 31 25 22 19 17 14 12 12 14 15 16
9 9 8 9 9 9 10 10 11 11 11 11 12 10 7 6 5 3 3 4 3 4 4 3 3 3 2 3 8 10 8 7 8 8 6 5 5 4 5 7 9 8 4 3 3 4 5 5 5 6 8 7 3 1 2 4 5 9 16 20 21 23 24 23 24 25 27 30 28 21 19 22 24 25 31 35 33 28 25 20 14 11 13 16 18 18 18
10 10 10 10 9 10 10 10 10 10 10 9 9 10 9 8 6 3 3 4 4 4 5 3 0 1 2 3 5 8 7 7 8 9 8 7 6 5 5 6 8 8 6 4 4 5 6 6 4 4 6 5 2 1 2 4 7 12 16 18 20 23 25 24 25 27 30 33 31 23 20 26 29 27 29 32 32 30 30 27 22 20 20 23 24 24 22
11 12 11 11 10 10 11 11 10 9 9 9 8 8 7 7 6 4 3 2 3 4 4 2 1 1 3 3 3 5 6 6 6 6 5 5 6 5 4 3 3 4 5 4 2 3 5 5 4 4 5 3 1 1 2 4 10 15 17 17 20 23 24 25 28 31 33 34 33 29 28 29 28 26 26 27 26 26 27 28 29 29 30 31 30 28 26
12 13 12 12 11 10 10 10 9 8 9 10 9 7 5 4 4 4 4 3 3 3 2 2 1 1 2 2 2 3 4 4 4 3 2 3 3 3 2 2 1 1 2 2 1 0 3 4 4 4 4 4 1 1 1 5 12 16 18 20 23 26 25 25 29 33 34 34 32 31 31 30 26 24 24 24 23 22 23 25 26 28 30 31 30 28 26
12 13 13 12 12 11 10 8 7 7 9 10 10 8 5 3 2 2 3 4 3 2 3 2 1 0 1 1 2 3 3 2 1 1 0 0 1 2 2 2 1 0 1 2 1 1 2 3 2 2 3 2 2 4 8 12 15 18 20 22 24 26 26 27 29 31 33 32 31 31 33 34 30 27 26 24 22 20 21 23 23 24 27 29 28 26 25
12 13 12 13 13 10 7 6 7 8 10 11 9 7 4 3 2 2 3 3 3 4 3 2 1 1 1 2 3 3 3 1 1 1 1 1 1 2 2 1 0 1 2 2 1 2 2 3 2 0 1 3 5 10 16 17 17 19 21 23 24 26 27 27 29 30 31 30 31 35 38 38 34 30 28 26 23 19 19 23 24 24 25 27 26 25 24
13 13 13 13 11 7 5 7 9 11 11 11 8 4 3 3 3 3 3 3 3 4 3 2 2 2 2 2 3 3 3 2 1 1 1 1 1 1 2 1 0 1 1 2 2 3 2 2 1 1 2 8 13 17 20 19 17 18 21 23 25 27 27 28 29 30 30 29 32 37 40 39 37 34 31 29 25 20 18 21 22 22 23 24 24 24 23
14 15 15 13 9 6 7 10 13 13 11 8 4 2 2 2 2 2 2 3 3 3 3 2 3 4 4 2 3 4 3 2 1 0 1 1 1 1 0 1 1 1 1 1 3 4 2 1 1 2 3 7 14 21 24 22 19 20 23 24 25 27 28 29 30 30 29 28 29 32 34 35 35 34 32 31 28 21 16 17 18 17 18 18 19 21 22
16 17 15 11 9 9 11 13 14 12 8 4 2 2 2 2 1 1 2 2 2 2 2 2 4 5 5 5 4 4 3 2 1 1 1 1 1 0 1 1 1 2 2 1 3 2 2 0 2 3 2 5 13 22 26 23 21 22 25 25 26 28 30 30 31 30 30 30 30 31 33 36 36 35 33 31 28 21 15 13 13 12 13 15 17 18 20
17 17 14 11 11 12 13 13 11 8 4 2 2 2 1 1 2 2 0 2 1 2 2 2 3 4 5 5 5 4 4 3 2 1 1 1 1 1 1 1 1 2 1 2 3 0 2 1 2 1 4 11 18 24 26 24 21 22 24 25 26 29 30 32 33 33 34 35 35 36 37 41 42 39 36 34 30 22 13 9 9 9 10 12 13 14 15
17 16 12 10 10 11 10 8 5 3 2 2 2 2 1 1 2 2 1 1 2 3 3 3 4 4 4 5 6 5 4 2 2 1 1 0 1 1 1 0 2 2 0 3 1 2 2 3 2 2 8 16 22 23 24 24 22 20 22 24 25 28 30 32 34 35 36 37 38 39 40 43 46 45 42 39 34 26 14 6 7 8 7 7 8 10 10
17 15 11 8 6 5 5 4 2 1 1 1 1 2 2 2 2 1 2 3 4 3 3 5 6 6 5 5 5 5 3 2 2 2 1 1 1 1 1 1 1 1 1 1 2 3 2 2 1 4 11 18 21 21 23 24 20 18 20 23 25 27 29 31 32 34 35 36 38 39 41 43 46 48 46 43 39 33 23 12 5 5 5 4 5 8 9
15 12 8 5 3 2 2 2 1 1 2 1 1 1 2 3 2 1 2 4 4 5 7 9 8 6 4 3 3 3 3 3 2 2 1 1 1 1 1 0 1 1 1 1 1 1 1 0 2 6 13 17 19 20 22 22 19 17 19 21 23 26 28 30 31 32 34 36 38 39 41 42 44 46 48 47 43 39 33 24 14 6 1 1 3 5 7
12 9 5 3 2 1 1 1 1 1 1 1 1 2 2 2 3 3 4 7 8 11 14 14 8 6 5 3 2 2 3 2 1 1 2 2 0 0 1 1 1 1 2 1 1 0 1 0 4 9 14 16 17 19 20 19 16 16 16 17 22 25 27 29 30 30 31 32 35 37 38 39 40 42 44 45 45 42 39 33 26 18 12 7 6 6 7
9 6 3 2 1 1 0 0 1 1 1 1 2 2 3 4 5 5 8 12 13 15 17 14 5 3 5 4 3 2 3 3 2 1 2 1 1 1 1 1 2 2 1 1 1 1 1 1 5 9 12 13 16 18 18 15 14 13 12 14 18 22 24 26 28 29 29 30 31 33 34 35 36 36 38 41 43 43 41 38 34 29 24 19 16 15 15
6 4 3 1 1 1 1 0 1 1 1 1 1 1 3 6 8 10 13 16 15 15 14 10 5 1 1 2 2 2 2 3 1 2 2 1 1 1 1 2 2 1 1 2 2 1 1 2 6 9 10 12 14 16 16 14 13 12 11 11 14 17 20 23 25 27 29 30 30 30 31 32 33 33 34 36 39 41 41 40 38 34 31 29 27 25 23
5 3 2 1 2 1 0 2 4 3 1 1 1 3 5 8 10 12 14 15 15 13 11 9 5 2 1 1 1 0 1 1 2 3 3 2 1 1 2 2 1 1 1 2 2 2 2 2 5 7 9 11 13 15 14 13 12 12 11 11 12 13 16 19 21 23 25 27 29 30 30 30 31 32 33 34 35 36 37 39 39 38 36 34 32 31 29
4 3 2 2 2 1 2 5 5 3 1 1 3 4 6 8 10 11 12 13 13 10 9 8 6 3 2 3 2 1 2 2 2 1 2 3 2 1 1 1 1 1 1 1 2 3 3 3 4 7 9 9 11 13 14 13 12 11 11 11 11 11 12 15 17 19 21 23 25 28 29 30 31 31 31 32 32 32 33 33 35 37 38 37 35 34 33
3 3 3 2 2 2 2 3 2 2 3 3 4 4 5 7 8 9 10 12 12 10 7 7 6 4 3 3 3 2 1 1 1 1 2 1 1 0 1 0 1 1 2 3 4 5 4 3 3 5 6 7 9 12 13 12 10 8 9 11 12 11 10 11 14 16 17 19 21 23 26 29 30 30 30 29 29 30 31 32 31 32 33 34 35 36 35
2 3 3 2 2 3 4 3 2 3 5 5 5 5 5 5 6 7 8 10 10 9 6 4 4 3 3 3 2 1 1 1 2 2 1 0 0 0 0 1 3 4 4 6 7 6 3 2 2 4 5 6 8 10 11 11 9 7 8 10 12 10 9 10 11 12 14 16 17 18 21 25 27 28 28 27 27 28 30 31 31 29 28 28 29 32 34
2 2 3 3 3 4 5 5 5 6 7 6 5 5 5 6 5 5 6 7 7 6 4 3 2 3 2 1 1 0 1 2 2 1 1 1 0 1 2 3 4 5 5 6 6 4 2 1 2 4 4 4 5 7 9 9 7 6 7 9 10 10 10 11 11 11 11 12 14 15 16 19 23 25 26 27 28 29 29 28 28 28 27 26 24 24 25
Wind_Direction
332 333 334 336 337 336 341 344 342 341 342 348 352 351 350 344 329 356 11 9 8 27 93 28 17 59 347 325 304 311 328 1 15 12 26 45 33 16 94 108 74 99 211 277 328 342 328 252 177 274 297 305 314 332 343 343 338 331 313 308 319 310 316 316 292 290 277 267 267 267 259 249 251 248 212 195 203 196 198 204 174 182 207 194 193 259 270
334 335 335 336 336 337 341 342 340 342 346 351 352 349 349 338 324 351 10 12 24 45 68 346 4 351 346 340 332 339 348 359 357 357 31 31 334 262 48 90 116 143 263 328 341 330 325 237 216 259 270 294 319 327 335 336 330 318 308 306 317 322 339 9 337 323 287 264 254 256 256 203 305 283 224 208 212 203 190 115 142 205 206 180 189 235 257
335 335 335 336 337 337 339 339 340 345 348 352 353 348 348 343 327 342 356 12 38 59 64 1 1 350 355 352 343 347 345 349 353 356 26 20 3 354 317 312 146 67 3 354 321 317 297 210 223 247 270 295 306 308 316 321 315 290 282 285 293 301 276 34 333 275 239 231 218 238 344 343 312 302 274 228 212 200 184 120 166 223 209 169 188 231 253
334 335 334 335 338 338 336 337 343 350 350 353 358 355 351 356 342 337 345 7 35 50 47 26 10 352 357 348 342 350 339 339 351 1 25 13 358 339 318 356 74 27 360 322 297 301 249 244 273 257 275 297 280 289 302 304 301 288 280 290 310 298 244 228 211 228 247 263 272 287 316 309 286 295 300 278 236 207 181 142 184 199 170 180 213 226 248
334 334 334 335 338 338 336 338 348 358 359 360 2 6 5 7 48 2 342 352 10 18 22 18 3 337 344 334 309 338 339 336 349 3 16 0 352 340 353 28 35 352 333 295 258 278 261 264 280 270 279 291 272 287 295 292 303 313 310 323 337 289 273 258 222 233 250 263 277 284 288 279 268 274 281 280 268 222 190 189 194 159 147 222 238 216 232
335 334 335 335 336 337 337 342 354 4 8 7 6 14 22 3 359 25 14 352 357 356 347 345 340 328 327 317 268 324 343 353 353 359 353 352 4 18 1 3 360 331 321 295 243 269 278 258 256 257 270 285 288 298 294 286 327 354 349 332 324 229 270 270 247 270 273 267 270 271 266 257 253 260 265 268 271 239 205 198 181 157 175 223 229 202 218
335 335 335 334 334 336 339 346 356 3 4 7 9 11 13 3 337 357 8 354 315 303 308 317 329 330 323 324 338 332 341 350 349 349 336 337 7 40 349 319 326 320 312 293 243 238 270 264 258 251 274 290 296 304 295 288 339 353 333 315 308 247 256 280 303 303 291 276 265 262 266 264 259 271 277 270 258 234 211 192 172 176 198 215 205 205 225
336 334 333 332 332 337 342 345 352 357 352 355 8 6 353 352 327 320 335 332 300 295 304 320 336 332 320 318 337 334 336 340 338 337 323 304 327 9 337 306 309 309 301 288 253 241 246 258 263 263 283 294 266 217 258 243 272 322 312 304 316 302 280 312 331 316 295 286 292 306 306 293 280 308 327 334 306 226 204 188 175 188 216 250 216 209 243
335 333 332 333 334 340 342 339 343 350 345 339 345 343 324 315 310 310 314 310 292 294 307 327 326 312 309 319 334 335 331 333 331 322 299 274 293 323 316 303 302 300 295 281 265 269 268 268 275 277 276 273 249 224 221 213 246 309 289 278 314 313 295 325 349 330 292 297 332 331 318 307 321 354 354 356 2 24 170 122 47 151 222 299 288 205 257
335 333 332 332 334 336 332 328 334 341 336 327 321 314 311 311 309 307 304 290 278 280 286 297 300 289 293 314 327 323 309 316 326 322 303 296 307 311 308 302 299 294 289 279 282 294 295 287 285 283 275 268 258 252 249 242 241 251 239 267 274 257 276 325 355 324 283 301 325 320 315 333 5 6 359 358 21 52 62 47 26 17 49 79 148 229 273
336 333 331 330 331 328 322 323 332 332 321 313 303 295 296 301 303 300 287 267 242 211 211 237 231 272 295 308 317 308 298 312 324 318 299 305 309 312 311 304 295 261 281 296 305 307 303 295 291 283 273 265 257 252 252 247 238 231 228 246 258 257 278 298 338 314 283 303 317 315 351 46 153 96 18 2 19 46 50 44 27 16 21 39 263 291 356
336 333 330 329 328 326 326 329 331 325 310 296 290 292 293 296 301 293 258 253 247 185 202 260 238 259 286 294 299 295 296 313 320 311 305 300 302 307 310 307 295 285 303 311 315 314 309 301 292 281 268 262 257 250 247 241 233 226 218 214 245 272 279 269 238 228 274 302 326 355 106 90 186 115 34 4 1 26 34 41 32 21 15 11 4 354 2
335 332 330 330 328 328 331 332 326 321 314 294 282 289 295 296 298 287 249 243 255 207 247 274 252 256 271 278 286 294 299 305 310 311 308 301 299 305 310 308 295 303 315 319 317 313 310 299 291 284 274 276 273 253 240 236 231 219 207 205 222 248 266 276 260 235 273 316 344 136 179 319 356 52 20 3 358 354 359 28 28 18 10 7 4 354 355
334 333 332 331 330 330 330 329 329 329 325 308 287 284 288 287 289 285 266 247 244 232 251 280 271 257 263 276 289 300 304 304 306 306 302 298 292 294 306 316 316 319 325 323 316 312 311 292 300 303 293 296 299 244 228 234 230 217 207 201 208 230 250 275 264 217 285 325 307 265 302 353 29 18 348 342 333 323 327 18 28 13 5 2 0 355 358
336 336 335 331 329 330 330 329 331 330 324 315 304 295 290 283 283 285 272 254 265 258 229 233 263 271 278 294 299 303 306 304 305 303 300 299 293 299 320 330 333 338 339 333 327 333 331 315 316 310 302 319 325 222 217 254 226 213 208 198 199 221 229 224 244 245 348 330 305 324 339 105 5 330 316 304 296 294 284 252 34 11 359 354 356 3 3
338 336 334 331 328 328 329 324 323 323 318 310 305 303 299 289 280 282 278 263 257 251 219 240 271 278 283 294 296 292 287 286 312 310 305 310 308 319 336 345 351 354 351 353 31 16 324 320 322 299 294 317 322 291 307 339 172 180 185 184 198 222 226 229 259 267 320 312 275 334 73 164 323 320 311 307 307 297 261 194 42 5 347 345 351 4 6
339 335 333 332 329 327 326 323 321 322 318 306 296 296 301 300 285 282 282 265 241 252 274 285 285 275 270 290 296 291 284 290 310 310 310 318 312 321 337 347 359 5 1 360 69 18 349 321 308 305 291 300 309 314 325 346 62 127 158 173 204 233 221 192 216 229 249 251 247 37 136 288 319 316 310 311 310 300 187 114 42 345 338 345 353 4 7
337 335 334 332 330 327 326 327 329 328 319 306 294 291 293 297 292 283 276 263 247 260 284 292 280 266 265 287 295 296 297 298 306 308 295 294 295 319 331 334 347 2 2 3 27 2 354 334 316 315 310 314 323 334 332 338 31 78 127 153 191 258 231 171 215 235 253 236 191 81 171 316 327 320 320 322 316 305 85 74 359 322 337 352 3 9 12
337 336 336 334 332 332 333 332 331 326 317 304 295 292 294 297 298 291 273 259 246 255 277 287 286 284 287 289 284 284 291 291 291 304 304 288 314 326 327 323 334 349 348 352 14 353 339 330 322 307 307 329 340 346 344 358 29 32 36 108 67 348 2 355 317 317 299 236 142 103 174 356 341 329 334 345 354 101 53 43 30 346 351 1 9 14 17
339 338 339 339 339 340 339 334 328 323 316 301 292 291 297 302 303 298 279 259 252 268 281 288 292 293 292 284 277 277 282 284 281 279 250 270 317 329 336 358 348 339 338 344 360 4 345 330 324 321 333 333 332 348 356 7 23 13 14 62 29 1 8 6 344 342 332 338 46 64 173 344 345 340 346 10 34 35 0 7 28 16 10 8 11 16 17
341 342 344 347 349 349 346 340 336 331 319 299 290 294 301 306 312 312 292 260 252 270 289 301 305 304 299 290 285 279 273 270 268 269 272 281 305 332 1 302 311 320 336 353 342 329 328 331 323 321 330 322 329 352 344 336 5 6 5 39 33 14 20 19 329 339 357 28 31 24 237 328 353 6 23 20 20 18 9 8 21 21 17 15 14 14 15
345 347 351 356 358 358 358 356 353 353 352 342 321 307 302 291 245 274 298 278 258 267 286 300 304 305 305 300 297 290 278 274 271 264 265 276 290 290 262 277 295 297 281 307 319 295 318 331 317 321 330 334 341 342 339 349 17 5 359 20 48 24 9 4 325 333 350 99 134 28 27 0 359 21 37 23 19 23 18 13 14 13 16 20 16 10 12
349 354 0 3 4 7 10 11 10 14 22 29 31 10 326 163 168 221 262 282 280 283 295 307 307 312 334 344 332 319 295 269 250 238 236 249 276 287 268 275 293 298 296 306 301 288 304 312 302 322 339 347 341 333 343 9 22 4 1 22 50 24 12 20 18 332 319 149 125 43 29 15 343 1 31 26 20 20 15 7 1 359 6 17 14 7 7
356 3 6 8 13 19 20 18 18 21 31 43 45 44 53 87 115 224 253 277 290 296 307 317 324 344 1 360 323 307 298 225 195 200 207 218 238 266 284 295 304 299 310 320 315 299 299 303 297 313 341 354 353 341 347 8 14 1 3 17 34 15 12 16 8 337 312 261 71 9 350 336 270 254 9 23 18 10 2 353 347 350 359 7 4 1 4
3 11 12 15 25 29 26 23 20 19 27 40 44 45 54 59 50 28 359 289 293 308 312 315 340 11 348 320 282 269 270 164 174 187 199 218 237 258 293 321 326 316 316 324 326 313 303 297 302 324 343 3 10 355 329 353 347 345 14 32 3 360 7 4 350 340 304 273 338 346 337 328 219 194 179 25 10 350 341 337 335 342 356 1 354 353 360
10 15 17 24 31 33 33 31 26 20 21 28 32 39 49 48 38 33 35 302 280 283 281 293 335 12 354 342 324 267 231 200 203 218 243 267 275 280 290 301 312 319 324 331 337 333 327 337 2 334 333 2 4 349 294 332 334 332 35 31 360 354 7 354 325 317 291 276 347 351 343 340 169 180 222 349 344 330 325 326 327 332 345 353 348 347 357
14 15 19 27 30 33 40 37 29 24 24 29 31 32 35 31 20 21 51 357 295 284 266 292 321 351 13 23 19 311 230 210 221 252 271 282 281 273 272 281 305 335 347 346 345 352 10 22 357 331 336 353 353 342 308 325 339 21 53 20 5 1 9 350 330 320 303 319 343 345 333 307 265 277 290 303 316 319 316 315 318 324 334 340 337 337 350
15 14 15 20 23 31 38 34 29 28 28 29 31 29 26 21 12 357 290 228 322 283 283 299 314 342 21 31 23 335 231 217 220 236 252 286 277 251 255 275 320 344 351 355 356 357 10 4 329 319 343 353 351 345 331 330 347 65 41 9 2 357 346 337 329 311 300 306 313 316 301 281 285 292 296 302 308 310 307 306 306 313 323 328 325 326 337
17 16 17 15 13 21 25 24 26 27 24 24 26 22 9 17 17 9 347 137 338 296 298 310 325 356 22 24 28 34 311 236 191 195 211 195 140 193 255 304 321 325 338 1 1 334 336 348 333 329 352 357 346 336 349 351 10 49 16 357 351 343 327 313 301 291 292 297 304 305 296 287 290 295 298 301 302 299 297 296 294 298 307 311 307 313 322
13 15 20 21 17 17 16 15 19 21 19 19 20 16 3 14 18 13 13 55 49 350 325 319 333 2 13 17 26 34 38 63 168 182 207 231 220 248 326 340 333 335 1 23 10 356 355 348 341 350 5 9 6 16 23 11 17 16 358 349 344 339 329 316 304 298 297 301 307 306 298 294 299 302 299 298 299 299 297 294 289 286 283 268 270 288 296
2 2 8 14 18 19 16 13 12 12 14 19 22 21 12 5 7 7 15 42 53 17 345 297 292 326 20 35 24 29 43 56 60 84 100 91 84 75 46 25 21 27 40 37 30 33 13 342 333 349 6 13 24 72 17 12 20 355 347 344 343 340 333 325 321 320 317 316 317 314 306 304 304 300 297 299 301 301 299 296 288 273 248 235 251 267 274
360 357 355 355 358 3 5 7 6 4 5 13 21 24 21 18 23 33 39 43 36 2 348 326 303 325 357 18 13 23 44 59 56 64 79 83 75 75 72 58 51 48 37 19 22 20 1 345 333 340 358 8 21 50 18 22 13 346 341 343 345 343 338 333 333 335 336 335 331 320 308 310 308 298 296 299 299 293 287 282 267 235 216 223 239 252 261
0 358 354 349 345 344 347 350 355 357 357 2 11 16 18 24 38 60 55 39 28 355 344 345 331 321 321 338 9 26 43 57 56 56 67 81 83 84 86 75 61 53 44 33 20 359 349 341 323 330 357 13 43 105 42 13 353 343 342 347 349 346 343 343 343 344 345 345 342 332 318 318 319 314 308 303 296 287 280 271 258 241 233 236 243 249 254
356 355 352 348 342 337 338 341 342 343 346 351 358 4 10 20 35 48 47 16 354 344 347 353 351 320 324 326 4 29 41 54 55 47 58 80 84 82 82 71 51 51 49 41 27 1 345 326 307 323 339 332 252 124 58 351 342 344 348 351 353 352 350 351 352 351 349 349 348 343 335 331 329 327 323 314 303 292 282 271 262 256 253 253 253 253 253
346 348 346 345 343 335 333 340 341 336 338 343 346 349 353 358 13 27 31 14 353 341 342 352 7 5 354 345 348 7 27 52 61 55 66 79 63 52 50 38 39 63 22 349 314 350 345 334 326 324 315 303 326 60 358 315 332 347 354 356 358 359 356 354 353 352 350 351 351 349 348 348 345 338 334 328 317 303 289 277 268 260 258 258 257 254 253
342 344 342 342 342 334 329 336 342 338 339 341 339 337 334 323 324 350 4 6 356 322 298 309 318 137 118 278 282 312 342 11 54 42 29 190 2 355 5 34 44 270 302 317 274 263 348 357 357 308 305 326 1 337 318 319 335 350 357 359 1 3 360 355 353 352 352 354 355 353 355 358 355 346 340 336 326 310 293 282 274 261 253 254 254 252 252
348 347 345 343 340 334 329 336 341 340 341 341 337 332 322 309 306 305 297 305 308 289 284 306 290 242 260 276 272 304 336 307 250 314 316 262 281 340 6 50 325 295 317 332 300 291 336 14 59 80 336 350 343 335 337 342 348 353 356 359 3 4 3 0 359 357 355 356 358 359 1 1 357 350 342 336 330 314 290 281 279 269 256 252 252 250 251
351 348 345 342 338 331 328 332 334 336 340 340 337 329 306 294 305 300 272 266 277 271 262 256 244 246 277 294 279 290 317 300 267 310 326 276 293 351 6 12 331 309 312 314 319 327 337 6 75 90 345 341 346 351 354 355 355 356 359 1 4 5 4 5 6 3 0 358 359 0 0 358 354 351 345 338 334 323 296 283 284 279 267 260 258 253 251
351 347 342 336 329 319 319 324 327 330 333 333 327 315 296 296 313 311 283 270 265 254 244 237 230 226 226 243 268 271 271 292 325 270 230 263 314 347 349 313 326 5 11 330 340 1 7 341 353 13 344 334 345 354 357 358 358 0 2 3 5 6 6 8 10 10 7 5 4 4 3 359 355 353 349 342 337 330 308 287 281 276 269 266 264 257 251
348 344 336 327 316 311 315 319 322 323 325 329 330 322 317 306 279 270 304 311 270 226 226 246 249 249 249 249 257 261 255 253 285 254 223 232 244 235 48 339 321 20 31 311 307 356 54 50 344 357 343 321 336 349 357 1 0 0 1 2 4 7 8 10 12 13 12 10 9 10 12 10 6 1 357 351 347 340 323 300 288 279 272 269 264 256 250
344 338 329 317 311 312 315 318 321 324 333 356 349 326 313 286 263 253 347 18 309 264 263 256 242 248 252 240 236 255 275 273 264 278 306 258 213 185 79 352 336 33 27 270 274 31 84 43 6 331 313 327 339 351 1 4 360 359 2 2 3 6 9 11 13 15 14 13 12 12 14 15 14 9 6 4 3 357 341 313 300 294 284 274 263 252 244
336 332 325 316 311 314 318 318 319 331 1 24 351 310 266 275 304 291 208 208 273 282 289 271 253 266 284 269 251 255 275 281 258 262 314 269 207 189 163 355 27 48 233 251 277 71 48 8 13 288 312 335 348 358 5 5 360 358 3 4 4 7 10 10 12 15 16 15 14 13 14 17 18 15 13 14 16 15 13 348 308 303 299 286 269 253 236
330 332 333 327 320 329 339 329 318 347 32 58 28 347 329 331 330 295 261 274 279 278 290 290 281 286 302 292 254 233 233 245 248 253 254 206 205 137 71 37 28 86 195 231 40 52 29 6 341 290 319 340 353 0 5 7 2 356 1 6 8 10 12 13 13 15 16 17 17 17 17 19 21 20 20 22 23 24 29 35 9 310 307 305 277 254 236
330 332 332 327 326 352 356 325 318 18 20 20 80 50 343 326 311 270 295 311 298 289 303 305 288 266 267 270 233 218 221 226 236 252 254 208 191 97 69 279 244 192 146 77 44 64 82 128 279 309 329 346 355 360 6 10 5 356 358 7 11 13 16 17 16 15 15 17 20 20 20 22 23 23 23 25 26 27 31 40 53 71 87 294 273 252 237
330 330 332 335 336 344 347 330 353 24 358 304 237 185 212 260 253 249 297 316 309 315 329 330 302 244 229 222 206 221 225 196 176 232 227 193 110 335 218 213 212 108 83 34 326 338 85 347 312 325 337 347 354 0 9 15 8 356 355 4 12 17 20 21 20 18 16 17 20 22 22 23 25 26 26 26 28 30 33 38 49 70 98 126 147 157 171
332 336 357 11 323 288 158 31 347 334 250 253 246 221 229 260 274 298 330 336 330 332 342 348 338 228 218 208 203 227 217 183 165 285 237 168 73 327 211 136 52 33 34 6 329 340 43 314 314 327 339 349 357 5 15 18 9 357 355 3 12 19 23 24 24 24 21 20 22 25 25 25 26 28 28 28 29 32 34 37 46 62 78 90 102 118 134
323 330 357 2 281 316 17 101 212 239 270 266 253 279 329 334 333 340 349 350 345 344 349 356 4 38 181 197 209 237 211 182 176 346 352 73 84 327 18 61 54 23 356 345 325 318 343 337 330 337 349 360 6 12 18 19 11 3 360 1 8 17 21 23 25 26 26 25 24 25 26 28 29 30 32 33 33 33 34 37 44 55 64 71 81 96 112
307 312 338 263 217 255 357 177 184 180 109 34 350 343 352 355 353 352 352 351 349 352 358 1 3 11 16 5 351 21 47 48 16 354 1 29 53 21 13 20 31 35 9 333 304 300 308 315 328 346 1 11 14 16 21 22 18 14 12 5 4 12 19 20 21 23 25 26 26 27 28 30 30 31 33 35 36 36 35 36 40 48 56 62 70 79 90
298 281 277 264 249 229 187 180 186 196 230 348 334 330 343 356 357 352 350 351 354 1 12 19 20 10 342 346 9 41 29 18 15 12 15 24 37 44 11 356 346 356 339 241 260 285 282 276 317 349 4 15 20 22 24 22 20 24 27 19 9 7 10 13 15 16 18 20 25 28 30 31 32 33 34 35 37 40 41 39 38 43 49 55 61 66 72
288 275 265 273 292 282 207 179 191 258 277 292 308 317 330 347 353 352 352 355 1 12 27 31 26 18 4 10 27 29 348 353 60 68 32 17 10 5 17 34 222 238 245 260 286 296 284 269 314 348 1 17 26 26 23 19 20 34 40 29 18 12 8 6 6 8 10 13 18 24 29 31 32 34 36 37 37 40 44 45 43 42 44 48 54 59 64
285 285 270 265 284 275 250 240 249 254 255 270 296 309 310 320 337 349 355 0 10 22 27 15 8 21 32 33 33 353 305 29 68 70 34 254 191 130 199 223 226 238 263 294 308 304 276 246 332 348 358 14 24 24 21 18 24 40 44 33 25 24 23 17 10 6 5 6 7 14 25 31 32 34 38 40 39 40 42 44 46 46 46 46 48 52 59
301 294 269 258 270 273 260 255 253 246 246 258 283 296 294 298 312 333 350 6 23 30 16 346 16 58 57 349 296 355 24 31 46 58 277 277 253 169 193 223 244 253 274 309 322 308 243 240 351 354 358 7 13 15 16 19 26 37 38 34 34 38 39 35 31 27 21 12 5 5 15 25 30 33 37 40 41 42 42 42 43 46 50 51 51 51 55